Location: Jackson Park
(37.2862°N, 79.9123°W)
Time: 11:36:52
(UTC+00:00)

S-56A Canister/Altair - Pass Details

Date: 18 May 2026
Orbit: 632 x 2484 km, 38.9° (Epoch: 9 June)

Event Time Altitude Azimuth Distance (km) Brightness Sun altitude
Rises 06:48:17 0° 278° (W) 3,122 - -29.1°
Reaches altitude 10° 06:50:45 10° 265° (W) 2,340 - -28.9°
Maximum altitude 06:55:15 26° 209° (SSW) 1,747 - -28.5°
Drops below altitude 10° 07:01:10 10° 155° (SSE) 3,147 - -28.0°
Sets 07:05:05 0° 144° (SE) 4,455 - -27.6°
